Redmond, OR

7:33 AM PST on February 20, 2017 (GMT -0800)
Roberts Field Airport

Weather History for KRDM - February, 2014

Change the Weather History Date:

Saturday, February 22, 2014

  Actual Average Record
Temperature  
Mean Temperature 37 °F 36 °F  
Max Temperature 52 °F 48 °F 69 °F (1990)
Min Temperature 22 °F 24 °F 12 °F (2010)
Degree Days  
Heating Degree Days 28 29  
Month to date heating degree days 778 663  
Since 1 July heating degree days 4608 4503  
Cooling Degree Days 0 0  
Month to date cooling degree days 0 0  
Year to date cooling degree days 0 0  
Moisture  
Dew Point 25 °F    
Average Humidity 64    
Maximum Humidity 88    
Minimum Humidity 39    
Precipitation  
Precipitation 0.00 in 0.02 in 0.35 in (1952)
Month to date precipitation 1.15 0.52  
Year to date precipitation 1.67 1.49  
Sea Level Pressure  
Sea Level Pressure 30.08 in    
Wind  
Wind Speed 6 mph (SW)    
Max Wind Speed 17 mph    
Max Gust Speed 23 mph    
Visibility 10 miles    
Events      
T = Trace of Precipitation, MM = Missing Value Source: NWS Daily Summary

Daily Weather History Graph

Daily Weather History Graph

Search for Another Location

Airport or City:

Trip Planner

Search our weather history database for the weather conditions in past years. The results will help you decide how hot, cold, wet, or windy it might be!

Date:

Astronomy

Feb. 22, 2014 Rise Set
Actual Time 6:53 AM PST 5:43 PM PST
Civil Twilight 6:23 AM PST 6:12 PM PST
Nautical Twilight 5:50 AM PST 6:46 PM PST
Astronomical Twilight 5:16 AM PST 7:20 PM PST
Moon 12:59 AM PST (2/22) 10:52 AM PST (2/22)
Length of Visible Light 11h 49m
Length of Day
10h 50m
Waning Gibbous, 49% of the Moon is Illuminated
Feb 22
Waning Gibbous
Mar 1
New
Mar 8
First Quarter
Mar 16
Full
Mar 23
Last Quarter

Hourly Weather History & Observations

Time (PST) Temp. Windchill Dew Point Humidity Pressure Visibility Wind Dir Wind Speed Gust Speed Precip Events Conditions
12:56 AM 28.0 °F 22.8 °F 24.1 °F 85% 30.14 in 10.0 mi South 4.6 mph - N/A   Clear
1:56 AM 27.0 °F - 23.0 °F 85% 30.14 in 10.0 mi Calm Calm - N/A   Clear
2:56 AM 26.1 °F 19.4 °F 21.9 °F 84% 30.13 in 10.0 mi South 5.8 mph - N/A   Clear
3:56 AM 26.1 °F 21.9 °F 21.9 °F 84% 30.13 in 10.0 mi SSE 3.5 mph - N/A   Clear
4:56 AM 26.1 °F - 21.0 °F 81% 30.14 in 10.0 mi Calm Calm - N/A   Clear
5:56 AM 25.0 °F 20.7 °F 21.0 °F 85% 30.14 in 10.0 mi SSE 3.5 mph - N/A   Clear
6:56 AM 23.0 °F 18.4 °F 19.9 °F 88% 30.14 in 10.0 mi East 3.5 mph - N/A   Clear
7:56 AM 28.0 °F - 21.9 °F 78% 30.14 in 10.0 mi Calm Calm - N/A   Clear
8:56 AM 36.0 °F 32.1 °F 23.0 °F 59% 30.13 in 10.0 mi South 4.6 mph - N/A   Clear
9:56 AM 39.0 °F 35.7 °F 25.0 °F 57% 30.14 in 10.0 mi Variable 4.6 mph - N/A   Clear
10:56 AM 44.1 °F 42.5 °F 21.0 °F 40% 30.11 in 10.0 mi Variable 3.5 mph - N/A   Clear
11:56 AM 48.0 °F - 25.0 °F 41% 30.08 in 10.0 mi WNW 9.2 mph - N/A   Clear
12:56 PM 48.9 °F - 26.1 °F 41% 30.06 in 10.0 mi West 10.4 mph - N/A   Clear
1:56 PM 50.0 °F - 27.0 °F 41% 30.04 in 10.0 mi NW 12.7 mph - N/A   Clear
2:56 PM 51.1 °F - 28.0 °F 41% 30.03 in 10.0 mi NW 17.3 mph 23.0 mph N/A   Clear
3:56 PM 50.0 °F - 28.0 °F 43% 30.04 in 10.0 mi NW 11.5 mph - N/A   Scattered Clouds
4:56 PM 48.9 °F - 28.0 °F 44% 30.03 in 10.0 mi NW 8.1 mph - N/A   Scattered Clouds
5:56 PM 45.0 °F 41.8 °F 28.9 °F 53% 30.04 in 10.0 mi NNW 5.8 mph - N/A   Overcast
6:56 PM 44.1 °F 41.5 °F 28.9 °F 55% 30.05 in 10.0 mi North 4.6 mph - N/A   Overcast
7:56 PM 41.0 °F - 30.0 °F 65% 30.04 in 10.0 mi Calm Calm - N/A   Overcast
8:56 PM 39.0 °F - 30.0 °F 70% 30.04 in 10.0 mi Calm Calm - N/A   Overcast
9:56 PM 37.9 °F 32.1 °F 28.9 °F 70% 30.03 in 10.0 mi South 8.1 mph - N/A   Overcast
10:56 PM 33.1 °F 27.7 °F 26.1 °F 75% 30.02 in 10.0 mi South 5.8 mph - N/A   Clear
11:56 PM 34.0 °F 26.0 °F 26.1 °F 73% 30.01 in 10.0 mi South 10.4 mph - N/A   Clear